LEGALEGR

Guest
Details From LEGA - Granada Armilla
To LEGR - Granada
Flight Number -
Tags Generated
Created
Modified
Stats Distance 8 nm / 15 km
Max Altitude 0 ft / 0 m
Waypoints 2
Social Downloads 0
Likes 0
Share VATSIM

Download

Looking for another format? Having issues loading an existing format? Contact us
Advertisement - Login to hide

Notes

Generated

Route

LEGA LEGR

ID Type Via Altitude Latitude Longitude Leg Dist Tot Dist Heading (true) Name
O LEGA APT - 0 ft / 0 m 37.13906˚ -3.63542˚ - 0 nm - -
O LEGR APT - 0 ft / 0 m 37.18861˚ -3.79372˚ 8 nm 8 nm 291° / 291° -

Altitude Profile

Advertisement - Login to hide

LEGA

Details ICAO LEGA
Name Granada Armilla
Region Spain
Timezone Europe/Madrid (UTC+2.0)
Stats Elevation 2,297 ft / 700 m (AMSL)
Location 37.133223° -3.635695°
Runways 1
Magnetic Variation 0.587° W

METAR

LEGA 250500Z VRB02KT 9999 -RA SCT045 BKN075 13/10 Q1014

Decode

TAF

Not found

Departure Runways

ID Width Length Bearing (true) Bearing (mag) Surface Threshold Offset Overrun Length
18 98 ft / 30 m 4,260 ft / 1,299 m 182.17° 182.76° Asphalt 250 ft / 76 m 0 ft / 0 m
36 98 ft / 30 m 4,260 ft / 1,299 m 2.17° 2.76° Asphalt 250 ft / 76 m 0 ft / 0 m

LEGR

Details ICAO LEGR (GRX)
Name Granada
Region Spain
Timezone Europe/Madrid (UTC+2.0)
Stats Elevation 1,859 ft / 567 m (AMSL)
Location 37.188731° -3.777359°
Runways 1
Magnetic Variation 0.626° W

METAR

LEGR 250530Z VRB01KT 9999 -RA SCT025 BKN075 13/12 Q1014

Decode

TAF

TAF LEGR 250200Z 2503/2603 25007KT 9999 SCT060 TX25/2515Z TN12/2505Z PROB40 TEMPO 2503/2507 4000 SHRA SCT025 SCT040TCU PROB30 TEMPO 2503/2507 TS SCT020 SCT035CB PROB30 TEMPO 2514/2519 27015G25KT

Decode

Destination Runways

ID Width Length Bearing (true) Bearing (mag) Surface Threshold Offset Overrun Length
09 147 ft / 45 m 9,511 ft / 2,899 m 89.46° 90.09° Asphalt 0 ft / 0 m 0 ft / 0 m
27 147 ft / 45 m 9,511 ft / 2,899 m 269.48° 270.11° Asphalt 0 ft / 0 m 0 ft / 0 m

Approach Navaids

Runway Type Ident Frequency Range Bearing (true) Bearing (mag) Slope Elevation
09 Localiser GRD 109.30 MHz 18 nm / 33 km 89.49° 90.11° - 1,859 ft / 567 m (AMSL)
09 Glidescope GRD 109.30 MHz 10 nm / 19 km 89.47° 90.10° 3.00° 1,859 ft / 567 m (AMSL)